Paducah, KY

3:19 PM CST on December 15, 2019 (GMT -0600)
Barkley Regional

Weather History for KPAH - November, 2019

Change the Weather History Date:

Tuesday, November 19, 2019

  Actual Average Record
Temperature  
Mean Temperature 47 °F 47 °F  
Max Temperature 61 °F 57 °F 78 °F (1985)
Min Temperature 33 °F 37 °F 18 °F (1951)
Degree Days  
Heating Degree Days 18 18  
Month to date heating degree days 475 280  
Since 1 July heating degree days 702 547  
Cooling Degree Days 0 0  
Month to date cooling degree days 0 0  
Year to date cooling degree days 1856 1538  
Moisture  
Dew Point 38 °F    
Average Humidity 73    
Maximum Humidity 93    
Minimum Humidity 39    
Precipitation  
Precipitation 0.05 in 0.15 in 3.27 in (1988)
Month to date precipitation 1.92 2.57  
Year to date precipitation 64.52 42.76  
Snow  
Snow 0.00 in 0.00 in 1.00 in (1969)
Month to date snowfall 1.2 0.0  
Since 1 July snowfall 1.2 0.1  
Since 1 September snowfall 1.2 0.1  
Snow Depth 0.00 in    
Sea Level Pressure  
Sea Level Pressure 29.88 in    
Wind  
Wind Speed 5 mph ()    
Max Wind Speed 22 mph    
Max Gust Speed 36 mph    
Visibility 9.8 miles    
Events Rain    
T = Trace of Precipitation, MM = Missing Value Source: Averaged Metar Reports

Daily Weather History Graph

Daily Weather History Graph

Search for Another Location

Airport or City:

Astronomy

Nov. 19, 2019 Rise Set
Actual Time 6:37 AM CST 4:42 PM CST
Civil Twilight 6:09 AM CST 5:10 PM CST
Nautical Twilight 5:38 AM CST 5:42 PM CST
Astronomical Twilight 5:07 AM CST 6:13 PM CST
Moon 11:36 PM CST (11/19) 12:49 PM CST (11/19)
Length of Visible Light 11h 01m
Length of Day
10h 05m
Waning Gibbous, 51% of the Moon is Illuminated
Nov 19
Waning Gibbous
Nov 19
Last Quarter
Nov 26
New
Dec 4
First Quarter
Dec 11
Full

Hourly Weather History & Observations

Time (CST) Temp. Windchill Dew Point Humidity Pressure Visibility Wind Dir Wind Speed Gust Speed Precip Events Conditions
12:53 AM 46.0 °F 42.5 °F 39.9 °F 79% 29.77 in 10.0 mi SSE 6.9 mph - 0.02 in Rain Light Rain
1:53 AM 45.0 °F 42.6 °F 41.0 °F 86% 29.77 in 9.0 mi SSE 4.6 mph - 0.02 in Rain Light Rain
3:53 AM 45.0 °F 42.6 °F 41.0 °F 86% 29.74 in 10.0 mi SE 4.6 mph - 0.00 in   Overcast
4:53 AM 45.0 °F - 41.0 °F 86% 29.75 in 10.0 mi Calm Calm - N/A   Overcast
5:53 AM 44.1 °F - 39.9 °F 85% 29.75 in 10.0 mi Calm Calm - N/A   Mostly Cloudy
6:53 AM 39.9 °F 37.8 °F 37.9 °F 93% 29.78 in 9.0 mi SW 3.5 mph - N/A   Clear
7:53 AM 46.0 °F 42.5 °F 41.0 °F 83% 29.78 in 10.0 mi WSW 6.9 mph - N/A   Clear
8:53 AM 50.0 °F - 43.0 °F 77% 29.80 in 10.0 mi West 9.2 mph - N/A   Clear
9:53 AM 50.0 °F - 44.1 °F 80% 29.83 in 10.0 mi WNW 6.9 mph - N/A   Clear
10:53 AM 55.9 °F - 44.1 °F 64% 29.82 in 10.0 mi WNW 8.1 mph - N/A   Clear
11:53 AM 59.0 °F - 44.1 °F 58% 29.83 in 10.0 mi West 15.0 mph 20.7 mph N/A   Scattered Clouds
1:53 PM 60.1 °F - 35.1 °F 39% 29.86 in 10.0 mi WNW 18.4 mph 35.7 mph N/A   Clear
2:53 PM 59.0 °F - 36.0 °F 42% 29.89 in 10.0 mi NNW 12.7 mph 24.2 mph N/A   Clear
3:53 PM 57.9 °F - 36.0 °F 44% 29.92 in 10.0 mi NNW 8.1 mph - N/A   Clear
4:53 PM 54.0 °F - 35.1 °F 49% 29.94 in 10.0 mi NW 6.9 mph - N/A   Clear
5:53 PM 51.1 °F - 34.0 °F 52% 29.96 in 10.0 mi Calm Calm - N/A   Clear
6:53 PM 37.9 °F 35.5 °F 32.0 °F 79% 29.99 in 9.0 mi WSW 3.5 mph - N/A   Clear
7:53 PM 39.0 °F - 33.1 °F 79% 30.00 in 10.0 mi Calm Calm - N/A   Clear
8:53 PM 36.0 °F - 30.9 °F 82% 30.01 in 10.0 mi Calm Calm - N/A   Clear
9:53 PM 37.9 °F - 34.0 °F 86% 30.02 in 10.0 mi Calm Calm - N/A   Clear
10:53 PM 35.1 °F - 30.9 °F 85% 30.02 in 10.0 mi Calm Calm - N/A   Clear
11:53 PM 34.0 °F - 30.9 °F 89% 30.05 in 9.0 mi Calm Calm - N/A   Clear